Regional Weather Roundup
Issued by NWS

Home | Current Version | Previous Version | Text Only | Print | Product List | Glossary Off
Versions: 1 2 3 4 5 6 7 8 9 10 11 12 13 14 15 16 17 18 19 20 21 22 23 24 25 26 27 28 29 30 31 32 33 34 35 36 37 38 39 40 41 42 43 44 45 46 47 48 49 50

705
ASUS43 KMKX 171911
RWRWI

WISCONSIN REGIONAL WEATHER ROUNDUP
NATIONAL WEATHER SERVICE MILWAUKEE/SULLIVAN WI
200 PM CDT TUE OCT 17 2017

NOTE: "FAIR" INDICATES FEW OR NO CLOUDS BELOW 12,000 FEET WITH NO
SIGNIFICANT WEATHER AND/OR OBSTRUCTIONS TO VISIBILITY.

WIZ001-002-006>008-014>016-023>028-172000-
NORTHWEST WISCONSIN

CITY           SKY/WX    TMP DP  RH WIND       PRES   REMARKS
SUPERIOR ARPT  MOSUNNY   71  41  33 SW12      29.93F
ASHLAND        SUNNY     71  37  28 S13       29.94F
HAYWARD        CLOUDY    68  39  34 S9        29.96F
SIREN          CLOUDY    71  40  32 W13       29.95F
CUMBERLAND     SUNNY     66  43  42 S10G16    29.96F
RICE LAKE      SUNNY     69  41  35 SW12      29.99F
CHETEK         SUNNY     70  45  41 S8        29.97F
LADYSMITH      CLOUDY    69  44  41 S13       30.00F
EAU CLAIRE     SUNNY     69  43  38 S13       29.99F
MENOMONIE      SUNNY     69  44  39 S9        29.99F
NEW RICHMOND   SUNNY     68  43  40 SW7       29.98F
OSCEOLA        SUNNY     69  46  44 SW6       30.00F
$$

WIZ003>005-009-010-017-018-172000-
NORTH CENTRAL WISCONSIN

CITY           SKY/WX    TMP DP  RH WIND       PRES   REMARKS
MANITOWISH WTR PTSUNNY   66  39  37 S7        29.98F
ARBOR VITAE    PTSUNNY   64  43  46 S6        29.99F
WOODRUFF       PTSUNNY   64  43  46 S6        29.99F
RHINELANDER    CLOUDY    66  41  40 SW9       30.01F
EAGLE RIVER    PTSUNNY   65  35  32 SW7       29.99F
LAND O LAKES   MOSUNNY   67  35  30 SW5       30.00F
PHILLIPS       SUNNY     65  43  44 SW6       29.98F
TOMAHAWK       CLOUDY    68  38  33 SW3       30.00F
MEDFORD        SUNNY     66  44  45 SW8       30.01F
MERRILL        CLOUDY    69  43  39 SW8       30.01F
$$

WIZ029-030-035-036-043>047-172000-
CENTRAL WISCONSIN

CITY           SKY/WX    TMP DP  RH WIND       PRES   REMARKS
WAUSAU         SUNNY     67  44  43 S8        30.00F
MOSINEE        MOSUNNY   66  46  48 SW7       30.03F
MARSHFIELD     SUNNY     69  43  38 SW8       30.01F
STEVENS POINT  SUNNY     65  44  47 SW8       30.03F
WAUPACA        SUNNY     71  47  41 SE5       30.03F
WAUTOMA        SUNNY     69  46  43 SW7       30.04F
WISC RAPIDS    SUNNY     67  47  48 S8        30.04F
CAMP DOUGLAS   MOSUNNY   68  46  45 SW7       30.03F
$$

WIZ011>013-019>022-031-037>040-048>050-172000-
NORTHEAST WISCONSIN

CITY           SKY/WX    TMP DP  RH WIND       PRES   REMARKS
ANTIGO         MOSUNNY   66  44  45 SW9       30.02F
SHAWANO        SUNNY     71  46  40 S6        30.01F
OCONTO         SUNNY     69  45  41 W7        30.00F
STURGEON BAY   SUNNY     66  45  46 SW9       30.02F
GREEN BAY      SUNNY     65  50  58 SW12      30.02F
MANITOWOC      SUNNY     66  46  48 SW8       30.04F
APPLETON       MOSUNNY   66  41  39 SW12      30.05S
CLINTONVILLE   SUNNY     70  43  37 SW8       30.02F
OSHKOSH        SUNNY     67  47  48 SW8       30.04F
$$

WIZ032>034-041-042-053>061-172000-
SOUTHWEST WISCONSIN

CITY           SKY/WX    TMP DP  RH WIND       PRES   REMARKS
LA CROSSE      SUNNY     69  46  43 S12       30.02F
SPARTA         SUNNY     68  46  45 S8        30.03F
VIROQUA        SUNNY     66  46  48 SW9       30.05F
BOSCOBEL       SUNNY     71  43  36 SW10      30.06F
PRAIRIE DU CHI SUNNY     69  41  36 S5        30.05F
PLATTEVILLE    SUNNY     69  45  41 SW17      30.10F
$$

WIZ056-057-062-063-064-067-068-172000-
SOUTH CENTRAL WISCONSIN

CITY           SKY/WX    TMP DP  RH WIND       PRES   REMARKS
REEDSBURG      SUNNY     68  46  45 SW12      30.05F
BARABOO/DELLS  SUNNY     67  44  42 SW10      30.05F
LONE ROCK      SUNNY     69  47  45 SW12      30.06F
MINERAL POINT  SUNNY     70  43  37 SW12      30.09F
MADISON        MOSUNNY   67  44  43 SW9G17    30.07F
MIDDLETON      SUNNY     70  44  39 SW10G18   30.08F
WATERTOWN      SUNNY     69  46  43 SW10      30.07F
MONROE         SUNNY     68  41  37 SW17      30.10S
JANESVILLE     MOSUNNY   73  57  56 SW16G23   30.09F
$$

WIZ051-052-058>065-066-070>072-172000-
SOUTHEAST WISCONSIN

CITY           SKY/WX    TMP DP  RH WIND       PRES   REMARKS
MILWAUKEE      MOSUNNY   71  43  36 SW15G26   30.09F
WAUKESHA       SUNNY     66  43  42 SW14      30.10F
MILWAUKEE/TIMM SUNNY     70  37  30 W14       30.08F
RACINE         SUNNY     72  43  35 SW20G26   30.10F
BURLINGTON     SUNNY     72  44  37 SW18G24   30.10F
KENOSHA        SUNNY     71  43  36 SW18G28   30.10F
FOND DU LAC    SUNNY     68  44  42 SW10      30.05F
SHEBOYGAN      SUNNY     68  47  46 W9        30.05F
WEST BEND      SUNNY     68  39  34 SW13G21   30.05F
JUNEAU         SUNNY     67  45  45 SW16      30.08F
$$

LSZ147-162-172000-
LAKE SUPERIOR

STATION/POSITION TIME  TEMP    WIND        PRES    WAVE
                       AIR SEA DIR/SP/G            HT/PER
                 (UTC) (F)     (DEG/KT/KT) (MB)    (FT/S)
W MID LAKE BUOY  1850   54 53              1014.1F   2/ 4
DEVILS ISLAND    1900   57     280/  2/  3 1014.0F
SAXON HARBOR     1900   71     200/  6/ 24 1013.2
$$

LMZ867-665-643>646-172000-
LAKE MICHIGAN

STATION/POSITION TIME  TEMP    WIND        PRES    WAVE
                       AIR SEA DIR/SP/G            HT/PER
                 (UTC) (F)     (DEG/KT/KT) (MB)    (FT/S)
S GREEN BAY BUOY 1900   60 58  210/ 14/ 16 1015.9
N MID LAKE BUOY  1850   58 59  220/ 12/ 14 1016.5F   5/ 7
NORTHPORT PIER   1840   65     180/  1/  8 1015.6F
KEWAUNEE LAKESHO 1848   67     230/  6/  9 1016.0F
SHEBOYGAN LAKESH 1900   66     220/  9/ 10 1017.2F
PORT WASHINGTON  1840   69     250/ 12/ 22 1018.3F
MILWAUKEE LAKESH 1850   68     230/ 15/ 16   N/A
S MID LAKE BUOY  1850   62 61  230/ 19/ 23 1019.6F   5/ 6
KENOSHA   LAKESH 1900   71     240/ 13/ 21 1019.0
$$

TC  - TEMPERATURE IN CELSIUS
VSB - VISIBILITY IN STATUTE MILES
WCI - WIND CHILL INDEX
HX  - HEAT INDEX





USA.gov is the U.S. government's official web portal to all federal, state and local government web resources and services.